"startDT [UTC]","vpos","CH4 [ppm]","stdev(CH4) [ppm]","CO2 [ppm]","stdev(CO2) [ppm]","H2O [ppm]","stdev(H2O)","p_LGR [torr]","T_LGR [C]","mt1_LGR [us]","mt2_LGR [us]","T_ECpre [C]","T_EC1 [C]","T_EC2 [C]","p_inlet [hPa]","p_in [hPa]","p_out [hPa]","T_inlet [C]","RH_inlet [%]","dwpt_inlet [C]","T_vent [C]","RH_vent [%]","dwpt_vent [C]","flow_vent [l min-1]","flow_inlet [l min-1]","dwpt_sample [C]","T_room [C]"
2012-09-19 00:00:00,0.0,1.9143,0.0008,392.54,0.23,247.3,26.8,138.05,31.33,24.66,36.51,0.93,-26.00,13.85,-47,42,-943,23.5,14.1,-5.5,23.5,1.9,-29.0,5.73,2.58,-27.4,28.9
2012-09-19 00:01:00,0.0,1.9142,0.0007,392.63,0.29,243.0,31.7,138.05,31.33,24.66,36.51,0.91,-26.00,14.07,-47,42,-942,23.5,14.5,-5.1,23.6,1.9,-28.9,5.73,2.60,-27.4,29.0
2012-09-19 00:02:00,0.0,1.9145,0.0008,392.57,0.31,238.5,28.3,138.05,31.33,24.66,36.52,0.89,-26.00,14.28,-47,42,-943,23.5,14.6,-5.0,23.5,1.9,-28.9,5.73,2.62,-27.4,29.0
2012-09-19 00:03:00,0.0,1.9146,0.0009,392.63,0.29,248.3,33.4,138.05,31.32,24.65,36.51,0.91,-25.99,14.48,-47,42,-943,23.5,14.9,-4.8,23.5,1.9,-29.0,5.73,2.59,-27.3,29.0
2012-09-19 00:04:00,0.0,1.9145,0.0009,392.58,0.29,241.4,29.3,138.05,31.32,24.65,36.51,0.92,-25.99,14.67,-47,42,-942,23.5,14.7,-4.9,23.5,1.9,-28.9,5.73,2.58,-27.4,29.0
2012-09-19 00:05:00,0.0,1.9148,0.0008,392.66,0.27,236.8,33.5,138.05,31.33,24.65,36.51,0.92,-25.98,14.85,-47,42,-943,23.5,14.9,-4.8,23.6,1.9,-28.9,5.73,2.62,-27.3,29.0
2012-09-19 00:06:00,0.0,1.9146,0.0008,392.57,0.29,241.1,29.8,138.05,31.33,24.65,36.51,0.92,-25.98,15.03,-47,42,-942,23.5,14.6,-5.0,23.6,1.9,-28.9,5.73,2.61,-27.4,29.0
2012-09-19 00:07:00,0.0,1.9145,0.0008,392.57,0.29,238.8,24.4,138.05,31.33,24.66,36.51,0.93,-25.97,15.20,-47,42,-943,23.5,14.6,-5.0,23.6,1.9,-28.9,5.73,2.58,-27.3,29.0
2012-09-19 00:08:00,0.0,1.9144,0.0009,392.61,0.25,238.6,30.0,138.05,31.33,24.66,36.51,0.92,-25.97,15.36,-47,42,-943,23.5,14.4,-5.2,23.6,1.9,-28.9,5.73,2.60,-27.3,28.9
2012-09-19 00:09:00,0.0,1.9148,0.0009,392.63,0.25,237.5,29.1,138.05,31.33,24.66,36.51,0.93,-25.96,15.51,-47,42,-942,23.5,14.4,-5.2,23.6,1.9,-29.0,5.73,2.62,-27.3,29.0
2012-09-19 00:10:00,0.0,1.9147,0.0008,392.51,0.23,237.8,32.6,138.05,31.33,24.66,36.52,0.94,-25.96,15.66,-47,42,-943,23.5,14.6,-5.0,23.6,1.9,-28.9,5.73,2.58,-27.3,29.0
2012-09-19 00:11:00,0.0,1.9146,0.0009,392.65,0.33,234.2,26.1,138.05,31.33,24.66,36.51,0.94,-25.95,15.81,-46,42,-943,23.5,15.0,-4.7,23.6,1.9,-28.9,5.73,2.59,-27.4,28.9
2012-09-19 00:12:00,0.0,1.9148,0.0008,392.63,0.28,239.9,30.5,138.05,31.32,24.65,36.51,0.94,-25.95,15.94,-47,42,-942,23.5,15.0,-4.6,23.6,1.9,-28.9,5.73,2.63,-27.4,29.0
2012-09-19 00:13:00,0.0,1.9144,0.0009,392.66,0.27,244.0,26.5,138.05,31.32,24.65,36.51,0.94,-25.94,16.07,-47,42,-943,23.5,14.4,-5.1,23.6,1.9,-28.9,5.73,2.60,-27.4,28.9
2012-09-19 00:14:00,0.0,1.9144,0.0010,392.61,0.27,239.6,25.9,138.05,31.32,24.65,36.51,0.94,-25.93,16.20,-47,42,-943,23.5,14.1,-5.4,23.6,1.9,-28.9,5.73,2.58,-27.4,28.9
2012-09-19 00:15:00,0.0,1.9142,0.0009,392.56,0.30,237.4,35.5,138.05,31.32,24.65,36.51,0.93,-25.94,16.31,-47,42,-943,23.5,14.1,-5.4,23.6,1.9,-29.0,5.73,2.62,-27.3,29.0
2012-09-19 00:16:00,0.0,1.9144,0.0010,392.40,0.26,237.2,24.6,138.05,31.32,24.65,36.52,0.93,-25.93,16.42,-47,42,-943,23.5,14.1,-5.5,23.6,1.9,-28.9,5.73,2.60,-27.3,29.0
2012-09-19 00:17:00,0.0,1.9146,0.0010,392.46,0.26,244.8,28.2,138.05,31.32,24.65,36.52,0.93,-25.93,16.53,-47,42,-943,23.5,14.3,-5.2,23.6,1.9,-29.0,5.73,2.57,-27.3,29.0
2012-09-19 00:18:00,0.0,1.9141,0.0010,392.62,0.28,245.2,31.7,138.05,31.32,24.65,36.51,0.91,-25.92,16.63,-47,42,-942,23.6,14.4,-5.1,23.6,1.9,-29.1,5.73,2.61,-27.3,28.9
2012-09-19 00:19:00,0.0,1.9140,0.0009,392.47,0.28,240.5,28.7,138.05,31.32,24.65,36.52,0.89,-25.93,16.73,-47,42,-943,23.5,14.5,-5.0,23.6,1.9,-29.1,5.73,2.62,-27.3,29.0
2012-09-19 00:20:00,0.0,1.9141,0.0009,392.61,0.29,244.9,27.7,138.05,31.31,24.66,36.51,0.92,-25.92,16.83,-47,42,-942,23.5,14.9,-4.7,23.6,1.9,-29.0,5.73,2.58,-27.3,29.0
2012-09-19 00:21:00,0.0,1.9140,0.0008,392.57,0.24,238.8,28.5,138.05,31.31,24.66,36.51,0.91,-25.91,16.92,-47,42,-943,23.5,14.6,-4.9,23.6,1.9,-29.1,5.73,2.60,-27.3,29.0
2012-09-19 00:22:00,0.0,1.9140,0.0009,392.51,0.27,242.8,27.1,138.05,31.31,24.66,36.52,0.91,-25.92,17.01,-47,42,-943,23.5,14.5,-5.1,23.6,1.9,-29.0,5.73,2.63,-27.3,29.0
2012-09-19 00:23:00,0.0,1.9141,0.0008,392.49,0.32,247.4,29.2,138.05,31.31,24.66,36.51,0.93,-25.91,17.09,-47,42,-943,23.5,14.5,-5.1,23.6,1.9,-29.1,5.73,2.59,-27.3,29.0
2012-09-19 00:24:00,0.0,1.9146,0.0009,392.67,0.28,238.6,28.9,138.05,31.31,24.66,36.51,0.93,-25.91,17.17,-47,42,-942,23.5,15.0,-4.6,23.6,1.9,-29.0,5.73,2.59,-27.3,29.0
2012-09-19 00:25:00,0.0,1.9145,0.0008,392.58,0.31,241.6,28.0,138.05,31.30,24.66,36.51,0.91,-25.91,17.24,-47,42,-943,23.5,14.8,-4.8,23.6,1.9,-29.1,5.73,2.63,-27.3,29.1
2012-09-19 00:26:00,0.0,1.9147,0.0009,392.58,0.29,242.5,25.6,138.05,31.30,24.66,36.52,0.92,-25.91,17.32,-47,42,-942,23.6,14.9,-4.7,23.7,1.9,-29.0,5.73,2.59,-27.3,29.1
2012-09-19 00:27:00,0.0,1.9149,0.0008,392.54,0.30,243.2,26.7,138.06,31.30,24.66,36.52,0.93,-25.90,17.40,-47,42,-943,23.6,15.0,-4.6,23.7,1.9,-29.0,5.73,2.59,-27.3,29.0
2012-09-19 00:28:00,0.0,1.9148,0.0008,392.68,0.30,236.0,30.8,138.06,31.30,24.66,36.51,0.94,-25.90,17.46,-47,42,-943,23.6,14.9,-4.6,23.7,1.9,-29.1,5.73,2.63,-27.3,29.1
2012-09-19 00:29:00,0.0,1.9149,0.0008,392.63,0.29,244.6,28.3,138.05,31.30,24.66,36.51,0.93,-25.90,17.52,-47,42,-942,23.6,14.7,-4.8,23.7,1.9,-29.0,5.73,2.61,-27.3,29.0
2012-09-19 00:30:00,0.0,1.9150,0.0008,392.69,0.30,245.3,32.5,138.06,31.30,24.66,36.51,0.93,-25.90,17.58,-47,42,-943,23.6,14.6,-4.9,23.7,1.9,-29.0,5.73,2.58,-27.3,29.1
2012-09-19 00:31:00,0.0,1.9149,0.0007,392.66,0.27,240.2,31.3,138.05,31.30,24.66,36.51,0.94,-25.90,17.64,-47,42,-943,23.6,14.5,-5.0,23.7,1.9,-29.0,5.73,2.62,-27.3,29.1
2012-09-19 00:32:00,0.0,1.9154,0.0008,392.60,0.23,244.9,29.7,138.05,31.29,24.66,36.51,0.93,-25.90,17.69,-47,42,-942,23.6,14.5,-5.0,23.7,1.9,-29.0,5.73,2.61,-27.3,29.0
2012-09-19 00:33:00,0.0,1.9157,0.0009,392.64,0.30,243.0,32.3,138.06,31.29,24.65,36.51,0.93,-25.90,17.75,-47,42,-943,23.6,14.5,-5.0,23.7,1.9,-29.0,5.73,2.57,-27.3,29.1
2012-09-19 00:34:00,0.0,1.9154,0.0009,392.69,0.27,242.3,25.2,138.05,31.29,24.66,36.51,0.94,-25.90,17.80,-47,42,-943,23.6,14.6,-4.9,23.7,1.9,-29.0,5.73,2.61,-27.3,29.1
2012-09-19 00:35:00,0.0,1.9157,0.0008,392.61,0.24,247.6,26.8,138.05,31.29,24.66,36.51,0.94,-25.90,17.85,-47,42,-943,23.6,14.4,-5.1,23.7,1.9,-29.0,5.73,2.61,-27.3,29.1
2012-09-19 00:36:00,0.0,1.9160,0.0010,392.70,0.24,240.2,26.8,138.06,31.29,24.66,36.51,0.94,-25.90,17.90,-47,42,-943,23.6,14.4,-5.1,23.7,1.9,-29.1,5.73,2.58,-27.3,29.1
2012-09-19 00:37:00,0.0,1.9158,0.0008,392.61,0.29,243.9,33.8,138.05,31.29,24.66,36.52,0.94,-25.90,17.95,-47,42,-942,23.6,15.0,-4.6,23.7,1.9,-29.0,5.73,2.60,-27.3,29.1
2012-09-19 00:38:00,0.0,1.9163,0.0008,392.63,0.24,240.5,33.6,138.06,31.29,24.65,36.51,0.94,-25.90,17.99,-47,42,-943,23.6,14.7,-4.8,23.7,1.9,-29.1,5.73,2.62,-27.3,29.1
2012-09-19 00:39:00,0.0,1.9163,0.0008,392.66,0.26,242.9,32.1,138.06,31.28,24.66,36.51,0.93,-25.90,18.03,-47,42,-943,23.6,14.6,-4.9,23.7,1.9,-29.0,5.73,2.57,-27.3,29.1
2012-09-19 00:40:00,0.0,1.9163,0.0009,392.74,0.29,241.5,31.4,138.06,31.28,24.65,36.51,0.93,-25.90,18.07,-47,42,-942,23.7,14.8,-4.6,23.7,1.9,-29.0,5.73,2.60,-27.3,29.1
2012-09-19 00:41:00,0.0,1.9165,0.0010,392.72,0.31,239.2,26.5,138.06,31.28,24.65,36.51,0.93,-25.89,18.11,-47,42,-943,23.7,14.9,-4.6,23.7,1.9,-29.0,5.73,2.62,-27.3,29.0
2012-09-19 00:42:00,0.0,1.9166,0.0011,392.85,0.26,240.0,30.0,138.06,31.28,24.66,36.51,0.91,-25.89,18.15,-47,42,-943,23.7,15.0,-4.5,23.7,1.9,-29.1,5.73,2.58,-27.3,29.0
2012-09-19 00:43:00,0.0,1.9187,0.0012,393.15,0.30,240.2,32.2,138.06,31.28,24.66,36.51,0.92,-25.89,18.18,-47,42,-943,23.7,15.5,-4.1,23.7,1.9,-29.0,5.73,2.60,-27.3,29.0
2012-09-19 00:44:00,0.0,1.9224,0.0011,393.61,0.25,247.7,31.9,138.06,31.27,24.65,36.52,0.91,-25.89,18.22,-47,42,-943,23.7,16.1,-3.5,23.7,1.9,-29.0,5.73,2.63,-27.3,29.0
2012-09-19 00:45:00,0.0,1.9236,0.0008,393.79,0.25,243.8,27.0,138.06,31.27,24.65,36.52,0.92,-25.89,18.24,-47,42,-943,23.7,16.1,-3.5,23.7,1.9,-29.0,5.73,2.59,-27.3,29.0
2012-09-19 00:46:00,0.0,1.9240,0.0010,393.82,0.27,239.5,36.3,138.06,31.27,24.66,36.51,0.92,-25.89,18.28,-47,42,-943,23.7,16.4,-3.3,23.7,1.9,-29.0,5.73,2.60,-27.3,29.0
2012-09-19 00:47:00,0.0,1.9239,0.0008,393.69,0.28,239.5,32.0,138.06,31.27,24.65,36.52,0.92,-25.88,18.30,-47,42,-943,23.7,16.2,-3.5,23.7,1.9,-29.0,5.73,2.63,-27.3,29.0
2012-09-19 00:48:00,0.0,1.9244,0.0009,393.84,0.28,249.4,35.9,138.06,31.27,24.65,36.51,0.92,-25.88,18.33,-47,42,-943,23.7,16.1,-3.5,23.7,1.9,-29.0,5.73,2.59,-27.3,29.1
2012-09-19 00:49:00,0.0,1.9247,0.0010,393.95,0.27,244.9,27.7,138.06,31.27,24.65,36.51,0.93,-25.88,18.36,-47,42,-943,23.7,16.2,-3.5,23.7,1.9,-29.0,5.73,2.60,-27.3,29.1
2012-09-19 00:50:00,0.0,1.9250,0.0011,393.95,0.30,247.6,30.4,138.06,31.27,24.66,36.51,0.92,-25.88,18.38,-47,42,-943,23.7,16.5,-3.2,23.7,1.9,-29.0,5.73,2.63,-27.3,29.0
2012-09-19 00:51:00,0.0,1.9228,0.0009,393.63,0.28,246.4,26.1,138.06,31.27,24.66,36.51,0.92,-25.88,18.41,-47,42,-943,23.7,16.2,-3.5,23.7,1.9,-29.0,5.73,2.59,-27.3,29.1
2012-09-19 00:52:00,0.0,1.9227,0.0010,393.62,0.32,245.8,27.0,138.06,31.27,24.65,36.51,0.94,-25.87,18.43,-47,42,-943,23.7,15.8,-3.7,23.8,1.9,-28.9,5.73,2.58,-27.3,29.1
2012-09-19 00:53:00,0.0,1.9237,0.0009,393.82,0.30,245.6,32.7,138.06,31.27,24.66,36.51,0.91,-25.87,18.46,-47,42,-943,23.7,16.1,-3.5,23.7,1.9,-29.0,5.73,2.63,-27.3,29.1
2012-09-19 00:54:00,0.0,1.9241,0.0008,393.86,0.29,249.4,29.6,138.06,31.27,24.66,36.51,0.92,-25.87,18.48,-47,42,-943,23.7,16.2,-3.4,23.7,1.9,-29.0,5.73,2.60,-27.2,29.1
2012-09-19 00:55:00,0.0,1.9245,0.0009,393.92,0.24,244.8,26.8,138.06,31.27,24.66,36.51,0.92,-25.87,18.50,-47,42,-943,23.7,16.6,-3.1,23.7,1.9,-29.0,5.73,2.58,-27.3,29.1
2012-09-19 00:56:00,0.0,1.9242,0.0011,393.90,0.31,248.7,28.9,138.06,31.26,24.65,36.51,0.93,-25.87,18.52,-47,42,-943,23.7,16.4,-3.3,23.7,1.9,-29.0,5.73,2.63,-27.3,29.1
2012-09-19 00:57:00,0.0,1.9236,0.0010,393.77,0.33,243.6,28.3,138.06,31.26,24.66,36.51,0.93,-25.86,18.54,-47,42,-942,23.7,16.0,-3.5,23.7,1.9,-29.0,5.73,2.60,-27.3,29.1
2012-09-19 00:58:00,0.0,1.9240,0.0008,393.88,0.27,243.9,30.0,138.06,31.26,24.66,36.51,0.93,-25.86,18.56,-47,42,-943,23.7,16.2,-3.4,23.8,1.9,-29.0,5.73,2.59,-27.2,29.1
2012-09-19 00:59:00,0.0,1.9254,0.0009,394.00,0.31,244.8,29.6,138.06,31.26,24.65,36.51,0.94,-25.86,18.57,-47,41,-943,23.7,16.4,-3.3,23.8,1.9,-29.0,5.73,2.62,-27.3,29.1
2012-09-19 01:00:00,0.0,1.9247,0.0009,393.85,0.26,260.5,30.2,138.06,31.26,24.65,36.52,0.94,-25.86,18.59,-47,42,-943,23.8,16.3,-3.3,23.8,1.9,-28.9,5.73,2.61,-27.2,29.1
2012-09-19 01:01:00,0.0,1.9249,0.0009,393.92,0.24,250.0,26.7,138.06,31.25,24.66,36.52,0.94,-25.86,18.60,-47,42,-943,23.8,16.5,-3.2,23.8,1.9,-28.9,5.73,2.58,-27.2,29.1
2012-09-19 01:02:00,0.0,1.9247,0.0006,393.89,0.28,253.4,29.6,138.06,31.25,24.65,36.52,0.94,-25.86,18.62,-47,42,-943,23.8,16.5,-3.2,23.8,1.9,-29.0,5.73,2.62,-27.2,29.1
2012-09-19 01:03:00,0.0,1.9242,0.0008,393.81,0.23,254.2,30.1,138.06,31.25,24.65,36.51,0.93,-25.86,18.63,-47,42,-943,23.8,16.3,-3.3,23.8,1.9,-28.9,5.73,2.61,-27.2,29.1
2012-09-19 01:04:00,0.0,1.9233,0.0008,393.84,0.27,246.3,29.2,138.06,31.24,24.66,36.51,0.93,-25.85,18.65,-47,42,-943,23.8,16.2,-3.4,23.8,1.9,-29.0,5.73,2.58,-27.2,29.1
2012-09-19 01:05:00,0.0,1.9239,0.0009,393.73,0.22,252.8,28.9,138.06,31.24,24.65,36.51,0.94,-25.85,18.66,-47,41,-943,23.8,16.1,-3.4,23.8,1.9,-28.9,5.73,2.62,-27.2,29.1
2012-09-19 01:06:00,0.0,1.9249,0.0010,393.90,0.28,256.0,33.7,138.06,31.24,24.66,36.51,0.97,-25.86,18.45,-47,42,-943,23.8,16.3,-3.3,23.8,1.9,-28.9,5.73,2.62,-27.2,29.1
2012-09-19 01:07:00,0.0,1.9249,0.0008,393.95,0.28,249.9,28.8,138.06,31.24,24.66,36.51,1.07,-25.84,16.80,-47,42,-943,23.9,16.4,-3.2,23.8,1.9,-28.9,5.73,2.58,-27.2,29.0
2012-09-19 01:08:00,0.0,1.9250,0.0008,394.00,0.33,253.5,31.1,138.06,31.23,24.66,36.51,1.08,-25.84,14.50,-47,42,-943,23.9,16.3,-3.2,23.8,1.9,-28.9,5.73,2.62,-27.2,29.0
2012-09-19 01:09:00,0.0,1.9241,0.0012,393.83,0.27,252.5,23.2,138.06,31.23,24.66,36.51,1.02,-25.86,12.12,-47,42,-943,23.9,16.2,-3.3,23.8,1.9,-29.0,5.73,2.62,-27.2,29.0
2012-09-19 01:10:00,0.0,1.9231,0.0009,393.69,0.33,252.8,24.4,138.06,31.23,24.66,36.52,0.96,-25.87,9.79,-47,42,-943,23.9,16.1,-3.3,23.9,1.9,-28.9,5.73,2.58,-27.2,29.0
2012-09-19 01:11:00,0.0,1.9247,0.0008,393.78,0.27,253.1,26.9,138.06,31.23,24.65,36.51,1.04,-25.88,7.54,-47,42,-943,23.9,16.3,-3.2,23.9,1.9,-28.9,5.73,2.63,-27.2,29.0
2012-09-19 01:12:00,0.0,1.9242,0.0010,393.78,0.35,255.5,28.3,138.06,31.22,24.66,36.51,1.10,-25.88,5.39,-47,42,-943,23.9,16.1,-3.4,23.9,1.9,-28.9,5.73,2.60,-27.2,29.0
2012-09-19 01:13:00,0.0,1.9246,0.0009,393.89,0.30,254.9,26.3,138.06,31.22,24.66,36.51,0.98,-25.89,3.35,-47,42,-943,23.9,16.4,-3.2,23.9,1.9,-28.9,5.73,2.59,-27.2,29.0
2012-09-19 01:14:00,0.0,1.9252,0.0009,393.89,0.33,254.2,33.1,138.06,31.22,24.65,36.52,1.03,-25.89,1.42,-47,42,-943,23.9,16.4,-3.1,23.9,1.9,-28.9,5.73,2.63,-27.2,29.1
2012-09-19 01:15:00,0.0,1.9249,0.0010,393.95,0.32,241.6,30.1,138.06,31.22,24.66,36.51,1.09,-25.90,-0.41,-47,42,-943,23.9,16.5,-3.0,23.9,1.9,-28.9,5.73,2.59,-27.2,29.1
2012-09-19 01:16:00,0.0,1.9247,0.0009,393.92,0.26,254.7,36.6,138.06,31.22,24.66,36.51,0.97,-25.91,-2.00,-47,42,-943,23.9,16.3,-3.2,23.9,1.9,-28.9,5.73,2.60,-27.2,29.1
2012-09-19 01:17:00,0.0,1.9242,0.0009,393.76,0.29,250.9,24.8,138.06,31.21,24.66,36.52,1.00,-25.90,-3.50,-47,42,-943,24.0,16.2,-3.3,23.9,1.9,-28.9,5.73,2.63,-27.2,29.1
2012-09-19 01:18:00,0.0,1.9252,0.0009,393.87,0.25,248.6,27.0,138.06,31.21,24.65,36.52,1.07,-25.91,-4.83,-47,42,-943,24.0,16.5,-3.0,23.9,1.9,-28.9,5.73,2.58,-27.2,29.1
2012-09-19 01:19:00,0.0,1.9243,0.0009,393.85,0.25,251.9,24.8,138.06,31.21,24.66,36.51,1.04,-25.91,-6.17,-47,42,-943,24.0,16.4,-3.1,23.9,1.9,-28.9,5.73,2.63,-27.2,29.1
2012-09-19 01:20:00,0.0,1.9247,0.0008,393.79,0.31,254.0,34.3,138.06,31.21,24.66,36.52,0.97,-25.91,-7.48,-48,42,-943,24.0,16.4,-3.0,24.0,1.9,-28.8,5.73,2.61,-27.2,29.2
2012-09-19 01:21:00,0.0,1.9241,0.0009,393.80,0.29,252.6,33.7,138.06,31.20,24.66,36.51,1.05,-25.92,-8.70,-47,42,-943,24.0,16.3,-3.1,23.9,1.9,-28.8,5.73,2.59,-27.2,29.1
2012-09-19 01:22:00,0.0,1.9247,0.0009,393.76,0.31,252.2,34.6,138.06,31.20,24.65,36.51,1.07,-25.92,-9.83,-48,42,-943,24.1,16.1,-3.3,24.0,1.9,-28.8,5.73,2.64,-27.2,29.1
2012-09-19 01:23:00,0.0,1.9251,0.0009,393.95,0.28,251.8,32.6,138.06,31.19,24.66,36.51,0.97,-25.93,-10.95,-48,42,-943,24.1,16.1,-3.2,24.0,1.9,-28.8,5.73,2.58,-27.2,29.1
2012-09-19 01:24:00,0.0,1.9256,0.0008,393.89,0.28,256.2,28.0,138.07,31.19,24.66,36.52,0.99,-25.93,-12.03,-47,42,-943,24.1,16.5,-2.9,23.9,1.9,-28.9,5.73,2.62,-27.2,29.2
2012-09-19 01:25:00,0.0,1.9259,0.0009,393.96,0.29,254.2,31.3,138.07,31.19,24.66,36.51,1.06,-25.95,-13.05,-48,42,-943,24.1,16.4,-3.0,23.9,1.9,-28.8,5.73,2.62,-27.2,29.2
2012-09-19 01:26:00,0.0,1.9265,0.0009,393.95,0.27,253.6,29.8,138.07,31.18,24.66,36.52,1.04,-25.96,-13.99,-48,42,-943,24.1,16.3,-3.0,24.0,1.9,-28.8,5.73,2.59,-27.2,29.2
2012-09-19 01:27:00,0.0,1.9272,0.0008,394.10,0.35,256.3,26.7,138.07,31.18,24.66,36.51,0.95,-25.97,-14.86,-48,42,-943,24.1,16.5,-2.9,24.0,1.9,-28.8,5.73,2.64,-27.2,29.2
2012-09-19 01:28:00,0.0,1.9276,0.0008,394.12,0.29,244.3,29.8,138.07,31.17,24.65,36.51,1.02,-25.98,-15.70,-48,42,-943,24.1,16.5,-2.9,24.0,1.9,-28.8,5.73,2.59,-27.2,29.2
2012-09-19 01:29:00,0.0,1.9276,0.0009,394.09,0.27,251.5,30.9,138.07,31.17,24.66,36.51,1.07,-25.99,-16.48,-48,42,-943,24.1,16.4,-3.0,24.0,1.9,-28.9,5.73,2.62,-27.2,29.2
2012-09-19 01:30:00,0.0,1.9275,0.0010,394.08,0.31,243.7,24.6,138.07,31.16,24.65,36.51,1.01,-26.00,-17.21,-48,42,-943,24.1,16.6,-2.8,24.0,1.9,-28.9,5.73,2.61,-27.2,29.2
2012-09-19 01:31:00,0.0,1.9283,0.0008,394.17,0.26,247.9,27.0,138.07,31.16,24.66,36.51,0.96,-26.01,-17.85,-48,42,-943,24.1,16.8,-2.6,24.0,1.9,-29.0,5.73,2.59,-27.3,29.2
2012-09-19 01:32:00,0.0,1.9286,0.0010,394.17,0.29,250.5,32.9,138.07,31.16,24.65,36.51,1.01,-26.03,-18.53,-48,42,-943,24.1,16.5,-2.8,24.0,1.9,-29.0,5.73,2.64,-27.3,29.3
2012-09-19 01:33:00,0.0,1.9285,0.0007,394.11,0.24,252.4,28.3,138.07,31.16,24.66,36.52,1.06,-26.04,-19.18,-48,42,-943,24.1,16.4,-2.9,24.0,1.9,-28.9,5.73,2.58,-27.3,29.2
2012-09-19 01:34:00,0.0,1.9282,0.0011,393.96,0.34,249.2,29.3,138.07,31.15,24.66,36.52,1.01,-26.04,-19.79,-48,41,-943,24.2,16.3,-3.0,24.1,1.9,-29.0,5.73,2.63,-27.3,29.3
2012-09-19 01:35:00,0.0,1.9274,0.0009,393.79,0.31,252.6,32.1,138.07,31.15,24.66,36.51,0.95,-26.06,-20.36,-48,42,-943,24.1,16.1,-3.2,24.1,1.9,-28.9,5.73,2.61,-27.3,29.2
2012-09-19 01:36:00,0.0,1.9280,0.0008,393.99,0.24,248.4,31.1,138.07,31.14,24.66,36.52,1.01,-26.07,-20.90,-48,41,-943,24.1,16.4,-2.9,24.1,1.9,-28.9,5.73,2.59,-27.3,29.3
2012-09-19 01:37:00,0.0,1.9290,0.0010,394.02,0.27,246.4,27.2,138.07,31.14,24.65,36.52,1.07,-26.08,-21.40,-48,41,-943,24.2,16.6,-2.7,24.1,1.9,-28.9,5.73,2.64,-27.3,29.2
2012-09-19 01:38:00,0.0,1.9291,0.0009,394.07,0.27,243.3,25.0,138.07,31.14,24.65,36.51,1.00,-26.09,-21.87,-48,41,-943,24.2,16.4,-2.9,24.1,1.9,-28.9,5.73,2.58,-27.3,29.3
2012-09-19 01:39:00,0.0,1.9284,0.0009,394.04,0.28,252.5,30.6,138.07,31.14,24.66,36.51,0.96,-26.11,-22.31,-48,41,-943,24.2,16.3,-3.0,24.1,1.9,-28.9,5.73,2.64,-27.3,29.3
2012-09-19 01:40:00,0.0,1.9292,0.0011,394.00,0.29,246.0,26.6,138.07,31.14,24.65,36.52,1.01,-26.12,-22.74,-48,41,-943,24.2,16.5,-2.8,24.1,1.9,-29.0,5.73,2.60,-27.3,29.2
2012-09-19 01:41:00,0.0,1.9288,0.0008,393.91,0.28,245.8,29.4,138.07,31.13,24.66,36.52,1.05,-26.13,-23.13,-48,41,-943,24.2,16.7,-2.6,24.1,1.9,-28.9,5.73,2.62,-27.3,29.2
2012-09-19 01:42:00,0.0,1.9290,0.0011,393.98,0.31,241.9,27.4,138.07,31.13,24.66,36.52,1.01,-26.14,-23.51,-48,42,-943,24.2,16.8,-2.6,24.1,1.9,-28.9,5.73,2.63,-27.3,29.2
2012-09-19 01:43:00,0.0,1.9292,0.0008,394.12,0.25,245.8,28.1,138.07,31.12,24.66,36.51,0.95,-26.16,-23.87,-48,41,-943,24.2,16.7,-2.7,24.1,1.9,-29.0,5.73,2.59,-27.3,29.2
2012-09-19 01:44:00,0.0,1.9301,0.0009,393.97,0.29,239.9,30.1,138.07,31.12,24.65,36.52,0.98,-26.16,-24.20,-48,41,-943,24.2,16.5,-2.8,24.1,1.9,-28.9,5.73,2.64,-27.3,29.2
2012-09-19 01:45:00,0.0,1.9305,0.0007,394.12,0.30,242.2,24.3,138.07,31.11,24.66,36.52,1.05,-26.17,-24.52,-48,41,-943,24.2,16.6,-2.7,24.1,1.9,-29.0,5.73,2.59,-27.3,29.2
2012-09-19 01:46:00,0.0,1.9309,0.0008,394.17,0.34,243.9,33.9,138.07,31.11,24.66,36.52,1.04,-26.18,-24.81,-48,41,-943,24.2,16.6,-2.7,24.1,1.9,-28.9,5.73,2.62,-27.3,29.3
2012-09-19 01:47:00,0.0,1.9305,0.0008,394.13,0.31,237.2,30.9,138.07,31.11,24.66,36.51,0.97,-26.19,-25.09,-48,41,-944,24.2,16.5,-2.8,24.1,1.9,-28.9,5.73,2.62,-27.3,29.3
2012-09-19 01:48:00,0.0,1.9311,0.0010,394.03,0.24,243.6,31.8,138.07,31.10,24.66,36.51,0.96,-26.20,-25.35,-48,41,-943,24.2,16.4,-2.9,24.1,1.9,-29.0,5.73,2.60,-27.3,29.3
2012-09-19 01:49:00,0.0,1.9311,0.0009,393.97,0.28,237.8,30.5,138.07,31.10,24.66,36.52,1.01,-26.21,-25.60,-48,41,-943,24.2,16.4,-2.9,24.1,1.9,-28.9,5.73,2.64,-27.3,29.3
2012-09-19 01:50:00,0.0,1.9300,0.0007,393.84,0.29,239.0,26.9,138.07,31.10,24.65,36.51,1.06,-26.22,-25.84,-48,42,-943,24.3,16.1,-3.1,24.1,1.9,-28.9,5.73,2.58,-27.3,29.3
2012-09-19 01:51:00,0.0,1.9310,0.0010,393.98,0.30,235.4,31.5,138.07,31.10,24.66,36.51,1.02,-26.23,-26.05,-48,41,-943,24.3,16.3,-2.9,24.1,1.9,-29.0,5.73,2.64,-27.4,29.3
2012-09-19 01:52:00,0.0,1.9319,0.0010,394.24,0.27,240.1,29.6,138.07,31.10,24.65,36.51,0.94,-26.24,-26.24,-48,41,-944,24.3,16.4,-2.8,24.1,1.8,-29.0,5.73,2.60,-27.4,29.3
2012-09-19 01:53:00,0.0,1.9312,0.0009,394.12,0.30,243.8,24.9,138.07,31.10,24.65,36.51,0.96,-26.25,-26.00,-48,41,-943,24.3,16.3,-2.9,24.1,1.8,-29.1,5.73,2.62,-27.4,29.3
2012-09-19 01:54:00,0.0,1.9307,0.0008,394.18,0.30,239.1,26.2,138.07,31.09,24.66,36.52,0.98,-26.26,-26.04,-48,41,-943,24.3,16.2,-3.0,24.1,1.8,-29.0,5.73,2.63,-27.4,29.3
2012-09-19 01:55:00,0.0,1.9310,0.0010,394.16,0.28,241.2,26.6,138.07,31.09,24.66,36.51,1.04,-26.26,-26.20,-48,41,-944,24.3,16.4,-2.9,24.1,1.8,-29.0,5.73,2.59,-27.4,29.3
2012-09-19 01:56:00,0.0,1.9308,0.0008,394.10,0.30,238.1,26.8,138.07,31.08,24.66,36.52,0.93,-26.27,-26.17,-48,41,-943,24.3,16.2,-3.0,24.1,1.8,-29.1,5.73,2.64,-27.4,29.3
2012-09-19 01:57:00,0.0,1.9308,0.0007,394.17,0.29,231.8,32.9,138.07,31.08,24.66,36.52,1.06,-26.29,-26.02,-48,41,-944,24.3,16.5,-2.7,24.1,1.8,-29.1,5.73,2.59,-27.4,29.3
2012-09-19 01:58:00,0.0,1.9311,0.0010,394.23,0.23,239.9,30.4,138.07,31.08,24.66,36.51,0.98,-26.29,-26.16,-48,41,-943,24.3,16.7,-2.6,24.2,1.8,-29.0,5.73,2.64,-27.4,29.3
2012-09-19 01:59:00,0.0,1.9306,0.0008,394.18,0.28,238.0,26.5,138.07,31.08,24.66,36.51,0.92,-26.30,-26.29,-48,41,-944,24.3,16.3,-2.9,24.1,1.8,-29.0,5.73,2.60,-27.4,29.3
2012-09-19 02:00:00,0.0,1.9308,0.0010,394.16,0.22,236.5,36.8,138.07,31.07,24.66,36.52,0.97,-26.31,-26.05,-48,41,-943,24.3,16.3,-2.9,24.2,1.8,-29.1,5.73,2.61,-27.4,29.2
2012-09-19 02:01:00,0.0,1.9311,0.0009,394.05,0.23,241.0,31.2,138.07,31.07,24.65,36.52,1.01,-26.31,-26.10,-48,41,-944,24.3,16.4,-2.8,24.1,1.8,-29.1,5.73,2.64,-27.4,29.3
2012-09-19 02:02:00,0.0,1.9307,0.0010,394.03,0.33,239.8,25.4,138.07,31.07,24.66,36.52,1.06,-26.32,-26.27,-48,41,-944,24.3,16.2,-3.0,24.2,1.8,-29.0,5.73,2.59,-27.4,29.3
2012-09-19 02:03:00,0.0,1.9310,0.0009,393.99,0.33,236.9,30.1,138.07,31.06,24.65,36.53,0.94,-26.33,-26.21,-48,41,-943,24.3,16.0,-3.1,24.2,1.8,-29.1,5.73,2.64,-27.4,29.3
2012-09-19 02:04:00,0.0,1.9301,0.0009,394.03,0.28,221.4,28.3,138.07,31.06,24.66,36.51,1.02,-26.34,-26.07,-48,41,-944,24.3,16.0,-3.1,24.1,1.8,-29.0,5.73,2.59,-27.5,29.3
2012-09-19 02:05:00,0.0,1.9303,0.0010,393.98,0.28,233.2,32.5,138.07,31.06,24.66,36.52,0.99,-26.15,-26.22,-48,41,-943,24.3,16.2,-3.0,24.2,1.8,-29.1,5.73,2.64,-27.5,29.3
2012-09-19 02:06:00,0.0,1.9312,0.0010,393.95,0.25,227.6,29.1,138.07,31.06,24.66,36.51,0.87,-24.77,-26.38,-48,41,-944,24.3,16.0,-3.1,24.2,1.8,-29.1,5.73,2.60,-27.7,29.3
2012-09-19 02:07:00,0.0,1.9291,0.0012,393.71,0.28,236.3,27.5,138.07,31.05,24.65,36.52,0.85,-22.87,-26.49,-48,41,-943,24.4,15.8,-3.3,24.2,1.8,-29.3,5.73,2.61,-27.4,29.3
2012-09-19 02:08:00,0.0,1.9296,0.0009,393.89,0.28,253.8,31.1,138.07,31.05,24.66,36.52,0.86,-20.94,-26.55,-48,41,-943,24.3,15.9,-3.2,24.2,1.8,-29.1,5.73,2.63,-27.1,29.3
2012-09-19 02:09:00,0.0,1.9296,0.0010,393.94,0.29,269.2,33.3,138.07,31.05,24.66,36.51,0.88,-19.07,-26.60,-48,41,-944,24.3,15.9,-3.2,24.2,1.9,-28.7,5.73,2.58,-26.9,29.3
2012-09-19 02:10:00,0.0,1.9287,0.0013,393.91,0.29,269.6,27.9,138.07,31.04,24.66,36.51,0.92,-17.30,-26.62,-48,41,-943,24.3,16.0,-3.1,24.2,2.0,-28.3,5.73,2.64,-26.8,29.3
2012-09-19 02:11:00,0.0,1.9270,0.0013,393.70,0.26,283.0,31.5,138.07,31.04,24.66,36.52,0.93,-15.61,-26.63,-48,41,-944,24.3,15.6,-3.4,24.2,2.0,-28.2,5.73,2.60,-26.7,29.3
2012-09-19 02:12:00,0.0,1.9296,0.0011,393.96,0.30,288.0,27.1,138.07,31.04,24.66,36.52,0.95,-14.00,-26.63,-48,41,-943,24.3,15.9,-3.2,24.2,2.0,-27.9,5.73,2.61,-26.7,29.3
2012-09-19 02:13:00,0.0,1.9286,0.0008,393.87,0.28,289.2,22.1,138.07,31.04,24.66,36.52,0.94,-12.49,-26.63,-48,41,-944,24.3,15.8,-3.3,24.2,2.0,-28.0,5.73,2.63,-26.7,29.4
2012-09-19 02:14:00,0.0,1.9292,0.0009,393.96,0.24,286.9,24.9,138.07,31.04,24.66,36.52,0.90,-11.06,-26.63,-48,41,-943,24.3,15.8,-3.3,24.2,2.0,-28.0,5.73,2.58,-26.6,29.4
2012-09-19 02:15:00,0.0,1.9286,0.0010,393.87,0.27,285.7,31.1,138.07,31.04,24.66,36.53,0.88,-9.69,-26.62,-48,41,-944,24.3,15.6,-3.4,24.2,2.0,-27.9,5.73,2.63,-26.6,29.4
2012-09-19 02:16:00,0.0,1.9283,0.0009,394.11,0.28,296.7,32.0,138.07,31.03,24.66,36.51,0.87,-8.38,-26.62,-48,41,-943,24.3,15.7,-3.3,24.2,2.0,-28.1,5.73,2.60,-26.7,29.3
2012-09-19 02:17:00,0.0,1.9288,0.0008,393.98,0.29,292.7,28.2,138.07,31.03,24.66,36.52,0.90,-7.15,-26.62,-48,41,-944,24.4,16.0,-3.1,24.2,2.0,-28.3,5.73,2.61,-26.7,29.3
2012-09-19 02:18:00,0.0,1.9275,0.0010,393.78,0.27,289.1,22.4,138.07,31.03,24.66,36.52,0.91,-5.97,-26.61,-48,41,-943,24.4,15.9,-3.1,24.2,1.9,-28.5,5.73,2.63,-26.8,29.3
2012-09-19 02:19:00,0.0,1.9263,0.0008,393.72,0.28,277.4,28.0,138.07,31.03,24.66,36.52,0.91,-4.84,-26.60,-48,41,-944,24.4,15.7,-3.3,24.2,1.9,-28.6,5.73,2.59,-26.8,29.3